Glenwood, MN

4:27 AM CST on February 21, 2017 (GMT -0600)
Glenwood Municipal

Weather History for KGHW - December, 2013

Change the Weather History Date:

Friday, December 27, 2013

  Actual Average Record
Temperature  
Mean Temperature 30 °F -  
Max Temperature 39 °F 22 °F 46 °F (1959)
Min Temperature 21 °F 4 °F -19 °F (1951)
Degree Days  
Heating Degree Days 35    
Moisture  
Dew Point 28 °F    
Average Humidity 89    
Maximum Humidity 100    
Minimum Humidity 70    
Precipitation  
Precipitation 0.00 in - - ()
Sea Level Pressure  
Sea Level Pressure 29.95 in    
Wind  
Wind Speed 11 mph (WSW)    
Max Wind Speed 22 mph    
Max Gust Speed 26 mph    
Visibility 9 miles    
Events      
Averages and records for this station are not official NWS values.
T = Trace of Precipitation, MM = Missing Value Source: NWS Daily Summary

Daily Weather History Graph

Daily Weather History Graph

Search for Another Location

Airport or City:

Trip Planner

Search our weather history database for the weather conditions in past years. The results will help you decide how hot, cold, wet, or windy it might be!

Date:

Astronomy

Dec. 27, 2013 Rise Set
Actual Time 8:01 AM CST 4:43 PM CST
Civil Twilight 7:26 AM CST 5:18 PM CST
Nautical Twilight 6:49 AM CST 5:55 PM CST
Astronomical Twilight 6:13 AM CST 6:32 PM CST
Moon 2:23 AM CST (12/27) 1:04 PM CST (12/27)
Length of Visible Light 9h 51m
Length of Day
8h 42m
Waning Crescent, 28% of the Moon is Illuminated
Dec 27
Waning Crescent
Jan 1
New
Jan 7
First Quarter
Jan 15
Full
Jan 23
Last Quarter

Hourly Weather History & Observations

Time (CST) Temp. Windchill Dew Point Humidity Pressure Visibility Wind Dir Wind Speed Gust Speed Precip Events Conditions
12:13 AM 24.8 °F 20.5 °F 23.0 °F 93% 30.10 in 7.0 mi SSW 3.5 mph - N/A   Overcast
12:33 AM 24.8 °F 17.9 °F 23.0 °F 93% 30.09 in 7.0 mi South 5.8 mph - N/A   Overcast
12:53 AM 24.8 °F 17.9 °F 23.0 °F 93% 30.08 in 7.0 mi South 5.8 mph - N/A   Overcast
1:13 AM 24.8 °F 15.3 °F 24.8 °F 100% 30.07 in 7.0 mi SSW 9.2 mph - N/A   Overcast
1:33 AM 24.8 °F 16.1 °F 24.8 °F 100% 30.07 in 10.0 mi SW 8.1 mph - N/A   Overcast
1:53 AM 26.6 °F 18.2 °F 24.8 °F 93% 30.06 in 10.0 mi SSW 8.1 mph - N/A   Overcast
2:13 AM 26.6 °F 16.8 °F 24.8 °F 93% 30.06 in 10.0 mi SSW 10.4 mph - N/A   Overcast
2:33 AM 26.6 °F 16.8 °F 26.6 °F 100% 30.06 in 10.0 mi SSW 10.4 mph - N/A   Overcast
2:53 AM 26.6 °F 15.7 °F 26.6 °F 100% 30.05 in 10.0 mi SSW 12.7 mph - N/A   Overcast
3:13 AM 26.6 °F 15.7 °F 26.6 °F 100% 30.04 in 10.0 mi SSW 12.7 mph - N/A   Overcast
3:33 AM 26.6 °F 14.7 °F 26.6 °F 100% 30.03 in 10.0 mi SSW 15.0 mph - N/A   Scattered Clouds
3:53 AM 26.6 °F 14.7 °F 26.6 °F 100% 30.02 in 10.0 mi SSW 15.0 mph - N/A   Clear
4:13 AM 26.6 °F 14.7 °F 26.6 °F 100% 30.01 in 10.0 mi SSW 15.0 mph - N/A   Clear
4:33 AM 26.6 °F 14.7 °F 24.8 °F 93% 30.01 in 7.0 mi SSW 15.0 mph - N/A   Clear
4:53 AM 24.8 °F 13.4 °F 24.8 °F 100% 30.02 in 7.0 mi SSW 12.7 mph - N/A   Clear
5:13 AM 24.8 °F 13.4 °F 23.0 °F 93% 30.01 in 7.0 mi South 12.7 mph - N/A   Clear
5:33 AM 23.0 °F 10.6 °F 21.2 °F 93% 29.99 in 7.0 mi South 13.8 mph - N/A   Clear
5:53 AM 21.2 °F 10.1 °F 21.2 °F 100% 29.98 in 7.0 mi South 10.4 mph - N/A   Clear
6:13 AM 21.2 °F 10.1 °F 21.2 °F 100% 29.97 in 7.0 mi South 10.4 mph - N/A   Clear
6:33 AM 21.2 °F 10.1 °F 21.2 °F 100% 29.96 in 7.0 mi South 10.4 mph - N/A   Clear
6:53 AM 21.2 °F 8.9 °F 21.2 °F 100% 29.94 in 7.0 mi South 12.7 mph - N/A   Clear
7:13 AM 23.0 °F 11.1 °F 21.2 °F 93% 29.93 in 10.0 mi SSW 12.7 mph - N/A   Clear
7:33 AM 24.8 °F 14.0 °F 21.2 °F 86% 29.93 in 10.0 mi SSW 11.5 mph - N/A   Clear
7:53 AM 24.8 °F 11.5 °F 24.8 °F 100% 29.92 in 10.0 mi SSW 17.3 mph - N/A   Scattered Clouds
8:13 AM 26.6 °F 14.3 °F 24.8 °F 93% 29.90 in 10.0 mi South 16.1 mph - N/A   Overcast
8:33 AM 28.4 °F 17.5 °F 24.8 °F 86% 29.90 in 10.0 mi SSW 13.8 mph - N/A   Overcast
8:53 AM 28.4 °F 16.6 °F 24.8 °F 86% 29.90 in 10.0 mi SSW 16.1 mph - N/A   Overcast
9:13 AM 28.4 °F 17.5 °F 26.6 °F 93% 29.90 in 10.0 mi SSW 13.8 mph - N/A   Overcast
9:34 AM 30.2 °F 17.8 °F 26.6 °F 86% 29.88 in 10.0 mi SSW 19.6 mph - N/A   Overcast
9:53 AM 30.2 °F 17.8 °F 26.6 °F 86% 29.88 in 10.0 mi SSW 19.6 mph - N/A   Mostly Cloudy
10:13 AM 30.2 °F 19.3 °F 26.6 °F 86% 29.89 in 10.0 mi SW 15.0 mph - N/A   Scattered Clouds
10:33 AM 30.2 °F 19.3 °F 26.6 °F 86% 29.89 in 10.0 mi SW 15.0 mph - N/A   Clear
10:53 AM 32.0 °F 22.1 °F 26.6 °F 80% 29.89 in 10.0 mi SW 13.8 mph - N/A   Clear
11:13 AM 35.6 °F 25.9 °F 28.4 °F 75% 29.88 in 10.0 mi SW 16.1 mph - N/A   Clear
11:33 AM 35.6 °F 25.5 °F 28.4 °F 75% 29.87 in 10.0 mi WSW 17.3 mph - N/A   Clear
11:53 AM 35.6 °F 25.5 °F 28.4 °F 75% 29.87 in 10.0 mi WSW 17.3 mph - N/A   Clear
12:13 PM 35.6 °F 24.8 °F 28.4 °F 75% 29.86 in 10.0 mi WSW 19.6 mph - N/A   Clear
12:33 PM 37.4 °F 27.8 °F 28.4 °F 70% 29.87 in 10.0 mi West 17.3 mph - N/A   Clear
12:53 PM 37.4 °F 27.5 °F 30.2 °F 75% 29.87 in 10.0 mi West 18.4 mph 24.2 mph N/A   Clear
1:13 PM 39.2 °F 29.6 °F 30.2 °F 70% 29.87 in 10.0 mi West 19.6 mph 23.0 mph N/A   Clear
1:33 PM 39.2 °F 29.8 °F 30.2 °F 70% 29.87 in 10.0 mi West 18.4 mph 26.5 mph N/A   Clear
1:53 PM 39.2 °F 29.8 °F 30.2 °F 70% 29.87 in 10.0 mi West 18.4 mph 26.5 mph N/A   Clear
2:13 PM 37.4 °F 26.6 °F 30.2 °F 75% 29.87 in 10.0 mi West 21.9 mph 26.5 mph N/A   Clear
2:33 PM 39.2 °F 29.6 °F 32.0 °F 75% 29.88 in 10.0 mi West 19.6 mph 25.3 mph N/A   Clear
2:53 PM 37.4 °F 27.5 °F 32.0 °F 81% 29.89 in 10.0 mi West 18.4 mph - N/A   Clear
3:13 PM 37.4 °F 28.2 °F 32.0 °F 81% 29.89 in 10.0 mi West 16.1 mph - N/A   Clear
3:33 PM 37.4 °F 28.2 °F 32.0 °F 81% 29.90 in 10.0 mi West 16.1 mph - N/A   Clear
3:53 PM 37.4 °F 28.9 °F 32.0 °F 81% 29.90 in 10.0 mi West 13.8 mph - N/A   Clear
4:13 PM 35.6 °F 27.1 °F 32.0 °F 87% 29.91 in 10.0 mi West 12.7 mph 19.6 mph N/A   Clear
4:33 PM 35.6 °F 27.1 °F 32.0 °F 87% 29.91 in 10.0 mi West 12.7 mph - N/A   Clear
4:53 PM 35.6 °F 27.1 °F 30.2 °F 81% 29.92 in 10.0 mi WNW 12.7 mph - N/A   Clear
5:13 PM 35.6 °F 27.5 °F 32.0 °F 87% 29.93 in 10.0 mi West 11.5 mph - N/A   Mostly Cloudy
5:33 PM 35.6 °F 26.2 °F 32.0 °F 87% 29.93 in 10.0 mi WNW 15.0 mph 20.7 mph N/A   Overcast
5:53 PM 35.6 °F 26.6 °F 32.0 °F 87% 29.94 in 10.0 mi WNW 13.8 mph - N/A   Overcast
6:13 PM 33.8 °F 23.9 °F 30.2 °F 87% 29.95 in 10.0 mi WNW 15.0 mph - N/A   Mostly Cloudy
6:33 PM 33.8 °F 25.3 °F 30.2 °F 87% 29.95 in 10.0 mi WNW 11.5 mph - N/A   Scattered Clouds
6:53 PM 32.0 °F 23.0 °F 30.2 °F 93% 29.95 in 10.0 mi WNW 11.5 mph - N/A   Clear
7:13 PM 32.0 °F 23.0 °F 30.2 °F 93% 29.95 in 10.0 mi West 11.5 mph - N/A   Clear
7:33 PM 32.0 °F 24.2 °F 30.2 °F 93% 29.95 in 10.0 mi West 9.2 mph - N/A   Clear
7:53 PM 30.2 °F 21.9 °F 28.4 °F 93% 29.96 in 10.0 mi West 9.2 mph - N/A   Clear
8:13 PM 28.4 °F 20.4 °F 28.4 °F 100% 29.96 in 10.0 mi West 8.1 mph - N/A   Clear
8:33 PM 30.2 °F 21.9 °F 28.4 °F 93% 29.96 in 10.0 mi West 9.2 mph - N/A   Mostly Cloudy
8:53 PM 30.2 °F 21.9 °F 30.2 °F 100% 29.96 in 10.0 mi West 9.2 mph - N/A   Overcast
9:13 PM 32.0 °F 24.8 °F 30.2 °F 93% 29.95 in 10.0 mi West 8.1 mph - N/A   Overcast
9:33 PM 32.0 °F 23.6 °F 30.2 °F 93% 29.96 in 10.0 mi West 10.4 mph - N/A   Overcast
9:53 PM 32.0 °F 24.2 °F 30.2 °F 93% 29.95 in 10.0 mi West 9.2 mph - N/A   Overcast
10:13 PM 32.0 °F 24.2 °F 30.2 °F 93% 29.96 in 10.0 mi West 9.2 mph - N/A   Overcast
10:33 PM 32.0 °F 27.5 °F 30.2 °F 93% 29.95 in 10.0 mi WSW 4.6 mph - N/A   Overcast
10:53 PM 32.0 °F - 30.2 °F 93% 29.94 in 10.0 mi Calm Calm - N/A   Overcast
11:13 PM 32.0 °F - 30.2 °F 93% 29.94 in 10.0 mi Calm Calm - N/A   Overcast
11:33 PM 32.0 °F - 30.2 °F 93% 29.93 in 7.0 mi Calm Calm - N/A   Overcast
11:53 PM 32.0 °F - 30.2 °F 93% 29.93 in 7.0 mi Calm Calm - N/A   Overcast